Location: Unspecified
(0.0000°N, 0.0000°E)
Time: 15:42:08
(UTC+00:00)

Hubble Space Telescope - Pass Details

Date: 03 August 2020
Orbit: 536 x 540 km, 28.5° (Epoch: 08 August)

Event Time Altitude Azimuth Distance (km) Brightness Sun altitude
Exits shadow 03:48:19 20° 66° (ENE) 1,275 3.3 -32.7°
Drops below altitude 10° 03:49:39 10° 64° (ENE) 1,780 4.3 -32.4°
Sets 03:51:55 0° 62° (ENE) 2,670 5.4 -31.9°
